This is the latest recevied weather packets stored in our database for station/object EA1CUE-WX. If no packets are shown the sender has not sent any weather packets the latest 10 day(s).
| Time | Temp. | Humidity | Pressure | Rain* | Wind** | Luminosity | Snow |
|---|---|---|---|---|---|---|---|
| 1787595829 | 16.67° C | 1% | 1008.9 hPa | 1.02 mm | - | - | - |
| 1787595529 | 17.22° C | 1% | 1008.8 hPa | 1.02 mm | - | - | - |
| 1787595229 | 17.22° C | 1% | 1008.7 hPa | 1.02 mm | - | - | - |
| 1787594929 | 17.22° C | 1% | 1008.7 hPa | 0.76 mm | - | - | - |
| 1787594629 | 17.22° C | 1% | 1008.7 hPa | 0.76 mm | - | - | - |
| 1787594329 | 17.22° C | 1% | 1008.6 hPa | 0.76 mm | - | - | - |
| 1787594029 | 17.22° C | 1% | 1008.5 hPa | 0.51 mm | - | - | - |
| 1787593729 | 16.67° C | 1% | 1008.4 hPa | 0.51 mm | - | - | - |
| 1787593429 | 16.67° C | 1% | 1008.3 hPa | 0.51 mm | - | - | - |
| 1787593129 | 16.67° C | 1% | 1008.1 hPa | 0.25 mm | - | - | - |
| 1787592829 | 16.67° C | 1% | 1008.2 hPa | 0 mm | - | - | - |
| 1787592529 | 16.67° C | 1% | 1008.4 hPa | 0 mm | - | - | - |
| 1787592229 | 17.22° C | 1% | 1008.4 hPa | 0.51 mm | - | - | - |
| 1787591929 | 16.67° C | 1% | 1008.5 hPa | 0.51 mm | - | - | - |
| 1787591629 | 16.67° C | 1% | 1008.2 hPa | 0.51 mm | - | - | - |
| 1787591329 | 16.67° C | 1% | 1008.1 hPa | 0.51 mm | - | - | - |
| 1787591029 | 17.22° C | 1% | 1008.1 hPa | 0.51 mm | - | - | - |
| 1787590729 | 17.22° C | 1% | 1008 hPa | 0.51 mm | - | - | - |
| 1787590429 | 17.22° C | 1% | 1007.9 hPa | 0.51 mm | - | - | - |
| 1787590129 | 16.67° C | 1% | 1007.9 hPa | 0.51 mm | - | - | - |
| 1787589829 | 16.67° C | 1% | 1007.9 hPa | 0.76 mm | - | - | - |
| 1787589529 | 16.67° C | 1% | 1008 hPa | 0.76 mm | - | - | - |
| 1787589229 | 16.67° C | 1% | 1007.9 hPa | 0.76 mm | - | - | - |
| 1787588929 | 16.67° C | 1% | 1007.7 hPa | 0.76 mm | - | - | - |
| 1787588629 | 16.67° C | 1% | 1007.6 hPa | 0.25 mm | - | - | - |
* Rain latest hour (hover to see other rain measurements)
** Current wind speed in m/s (hover to see current wind gust speed)